Mecheria, Algeria

11:03 PM CET on August 24, 2019 (GMT +0100)
Mecheria

Weather History for DAAY - June, 2019

Change the Weather History Date:

Wednesday, June 12, 2019

  Actual Average (WUND) Record (WUND)
Temperature  
Mean Temperature 76 °F -  
Max Temperature 95 °F - - (-1)
Min Temperature 57 °F - - (-1)
Cooling Degree Days 11    
Growing Degree Days 26 (Base 50)    
Moisture  
Dew Point 44 °F    
Average Humidity 31    
Maximum Humidity 63    
Minimum Humidity 7    
Precipitation  
Precipitation 0.00 in - - ()
Sea Level Pressure  
Sea Level Pressure 30.00 in    
Wind  
Wind Speed 11 mph ()    
Max Wind Speed 25 mph    
Max Gust Speed -    
Visibility 6.1 miles    
Events      
Averages and records for this station are not official NWS values.
T = Trace of Precipitation, MM = Missing Value Source: Averaged Metar Reports

Daily Weather History Graph

Daily Weather History Graph

Search for Another Location

Airport or City:

Astronomy

Jun. 12, 2019 Rise Set
Actual Time 5:50 AM CET 8:11 PM CET
Civil Twilight 5:21 AM CET 8:40 PM CET
Nautical Twilight 4:46 AM CET 9:15 PM CET
Astronomical Twilight 4:07 AM CET 9:54 PM CET
Moon 3:17 PM CET (6/12) 2:39 AM CET (6/12)
Length of Visible Light 15h 18m
Length of Day
14h 20m
Waxing Gibbous, 74% of the Moon is Illuminated
Jun 12
Waxing Gibbous
Jun 17
Full
Jun 25
Last Quarter
Jul 2
New
Jul 9
First Quarter

Hourly Weather History & Observations

Time (CET) Temp. Dew Point Humidity Pressure Visibility Wind Dir Wind Speed Gust Speed Precip Events Conditions
12:00 AM 68.0 °F 41.0 °F 37% 30.01 in - North 13.8 mph - N/A   Clear
3:00 AM 60.8 °F 46.4 °F 59% 30.01 in - North 9.2 mph - N/A   Clear
4:00 AM 60.8 °F 46.4 °F 59% 30.01 in - North 9.2 mph - N/A   Clear
5:00 AM 59.0 °F 46.4 °F 63% 30.01 in - North 9.2 mph - N/A   Clear
6:00 AM 59.0 °F 46.4 °F 63% 30.01 in - North 6.9 mph - N/A   Clear
7:00 AM 64 °F 46 °F 42%  in 6 mi North 6.9 mph - -  
7:00 AM 64.4 °F 46.4 °F 52% 30.01 in - North 6.9 mph - N/A   Clear
8:00 AM 69.8 °F 48.2 °F 46% 30.04 in - NNE 9.2 mph - N/A   Clear
10:00 AM 74 °F 50 °F 31%  in 6 mi NNE 9.2 mph - -  
10:00 AM 73.4 °F 50.0 °F 44% 30.04 in - NNE 9.2 mph - N/A   Clear
11:00 AM 78.8 °F 51.8 °F 39% 30.04 in - NNW 6.9 mph - N/A   Clear
12:00 PM 80.6 °F 50.0 °F 34% 30.04 in - North 4.6 mph - N/A   Clear
1:00 PM 89 °F 49 °F 16%  in 6 mi South 18.4 mph - -  
1:00 PM 89.6 °F 50.0 °F 26% 30.04 in - South 18.4 mph - N/A   Clear
2:00 PM 93.2 °F 41.0 °F 16% 30.01 in - South 23.0 mph - N/A   Clear
3:00 PM 93.2 °F 41.0 °F 16% 30.01 in 6.2 mi South 13.8 mph - N/A   Partly Cloudy
4:00 PM 95 °F 39 °F 7%  in 6 mi South 25.3 mph - -   Scattered Clouds
4:00 PM 95.0 °F 39.2 °F 14% 29.98 in 6.2 mi South 25.3 mph - N/A   Partly Cloudy
5:00 PM 95.0 °F 35.6 °F 12% 29.98 in 6.2 mi SSE 20.7 mph - N/A   Partly Cloudy
6:00 PM 93.2 °F 35.6 °F 13% 29.98 in 6.2 mi SSE 20.7 mph - N/A   Scattered Clouds
7:00 PM 90 °F 40 °F 9%  in 6 mi SSE 20.7 mph - -   Partly Cloudy
7:00 PM 89.6 °F 39.2 °F 17% 29.98 in 6.2 mi SSE 20.7 mph - N/A   Scattered Clouds
8:00 PM 87.8 °F 41.0 °F 19% 29.95 in 6.2 mi South 13.8 mph - N/A   Scattered Clouds
9:00 PM 84.2 °F 41.0 °F 22% 29.95 in 6.2 mi South 13.8 mph - N/A   Scattered Clouds
10:00 PM 78.8 °F 42.8 °F 28% 29.98 in 6.2 mi South 11.5 mph - N/A   Scattered Clouds
11:00 PM 75.2 °F 42.8 °F 31% 29.98 in 6.2 mi South 9.2 mph - N/A   Scattered Clouds